This demonstration page uses our WeatherBlox Daily Observations layout. Learn more.

Left ArrowRight Arrow

39.51506, -84.39828

Hourly Observations for March 15, 2017

Temp ( °F °C ) Dew Point ( °F °C ) Humidity (%) Winds ( mph kmh ) Pressure ( in mb ) Visibility ( mi km ) Precip ( " mm )
12:15 am 00:15 Partly Cloudy 22 -5.6 11 -11.6 63 63 NW 7 11 30.30 1026 10 16 0.00 0.00
12:35 am 00:35 Clear 21 -6 10 -12.5 60 60 NW 6 9 30.30 1026 10 16 0.00 0.00
12:55 am 00:55 Clear 21 -6.3 9 -12.9 60 60 NW 6 9 30.30 1026 10 16 0.00 0.00
1:15 am 01:15 Clear 19 -7 8 -13.1 62 62 WNW 5 7 30.30 1026 10 16 0.00 0.00
1:35 am 01:35 Clear 19 -7 9 -12.9 63 63 W 3 6 30.30 1026 10 16 0.00 0.00
1:55 am 01:55 Clear 19 -7 9 -12.8 64 64 W 6 9 30.30 1026 10 16 0.00 0.00
2:15 am 02:15 Clear 19 -7 9 -12.7 64 64 W 6 9 30.30 1026 10 16 0.00 0.00
2:35 am 02:35 Clear 19 -7 9 -12.6 65 65 W 8 13 30.30 1026 10 16 0.00 0.00
2:55 am 02:55 Clear 19 -7 9 -12.9 63 63 W 8 13 30.30 1026 10 16 0.00 0.00
3:15 am 03:15 Clear 19 -7 8 -13.5 60 60 W 6 9 30.30 1026 10 16 0.00 0.00
3:35 am 03:35 Clear 19 -7 8 -13.5 60 60 WNW 7 11 30.30 1026 10 16 0.00 0.00
3:55 am 03:55 Clear 19 -7 7 -13.7 59 59 WNW 6 9 30.30 1026 10 16 0.00 0.00
4:15 am 04:15 Clear 19 -7 7 -13.8 59 59 W 5 7 30.30 1026 10 16 0.00 0.00
4:35 am 04:35 Clear 19 -7 8 -13.6 60 60 W 7 11 30.30 1026 10 16 0.00 0.00
4:55 am 04:55 Clear 19 -7 8 -13.5 60 60 WNW 6 9 30.30 1026 10 16 0.00 0.00
5:15 am 05:15 Clear 19 -7 6 -14.2 57 57 WNW 6 9 30.30 1026 10 16 0.00 0.00
5:35 am 05:35 Clear 19 -7 5 -14.9 54 54 WNW 7 11 30.30 1026 10 16 0.00 0.00
5:55 am 05:55 Clear 19 -7 5 -15 53 53 WNW 6 9 30.30 1026 10 16 0.00 0.00
6:15 am 06:15 Clear 19 -7 4 -15.3 52 52 WNW 7 11 30.30 1026 10 16 0.00 0.00
6:35 am 06:35 Clear 19 -7 4 -15.3 52 52 W 7 11 30.33 1027 10 16 0.00 0.00
6:55 am 06:55 Clear 19 -7 5 -15.2 52 52 W 7 11 30.33 1027 10 16 0.00 0.00
7:15 am 07:15 Clear 19 -7 5 -15.1 53 53 W 7 11 30.33 1027 10 16 0.00 0.00
7:35 am 07:35 Clear 19 -7 5 -14.8 54 54 WNW 5 7 30.33 1027 10 16 0.00 0.00
7:55 am 07:55 Sunny 19 -7 5 -15.2 52 52 W 7 11 30.33 1027 10 16 0.00 0.00
8:15 am 08:15 Sunny 19 -7 4 -15.5 51 51 WNW 5 7 30.33 1027 10 16 0.00 0.00
8:35 am 08:35 Sunny 21 -6.3 4 -15.6 48 48 WNW 7 11 30.33 1027 10 16 0.00 0.00
8:55 am 08:55 Sunny 22 -5.6 3 -16 44 44 WNW 7 11 30.33 1027 10 16 0.00 0.00
9:15 am 09:15 Sunny 23 -5 2 -16.4 41 41 WNW 9 15 30.36 1028 10 16 0.00 0.00
9:35 am 09:35 Sunny 24 -4.2 2 -16.7 37 37 WNW 14 22 30.33 1027 10 16 0.00 0.00
9:55 am 09:55 Sunny 24 -4.2 -1 -18.1 33 33 WNW 13 20 30.33 1027 10 16 0.00 0.00
10:15 am 10:15 Sunny 27 -2.8 0 -17.6 31 31 W 14 22 30.33 1027 10 16 0.00 0.00
10:35 am 10:35 Sunny 29 -1.5 2 -16.6 31 31 WNW 14 22 30.33 1027 10 16 0.00 0.00
10:55 am 10:55 Sunny 29 -1.5 1 -17.2 29 29 WNW 16 26 30.33 1027 10 16 0.00 0.00
11:15 am 11:15 Sunny 29 -1.5 1 -17.1 30 30 WNW 14 22 30.33 1027 10 16 0.00 0.00
11:35 am 11:35 Sunny 29 -1.5 1 -17.3 29 29 WNW 18 30 30.33 1027 10 16 0.00 0.00
11:55 am 11:55 Sunny 29 -1.5 0 -18 27 27 WNW 12 19 30.33 1027 10 16 0.00 0.00
12:15 pm 12:15 Partly Cloudy 30 -1.1 3 -16 32 32 WNW 15 24 30.36 1028 10 16 0.00 0.00
12:35 pm 12:35 Mostly Cloudy 31 -0.5 3 -16.1 30 30 WNW 13 20 30.36 1028 10 16 0.00 0.00
12:55 pm 12:55 Cloudy 30 -1 2 -16.8 29 29 WNW 13 20 30.36 1028 10 16 0.00 0.00
1:15 pm 13:15 Cloudy 31 -0.5 4 -15.6 31 31 NW 13 20 30.36 1028 10 16 0.00 0.00
1:35 pm 13:35 Cloudy 31 -0.3 4 -15.7 31 31 WNW 10 17 30.36 1028 10 16 0.00 0.00
1:55 pm 13:55 Cloudy 32 0 4 -15.5 30 30 NW 16 26 30.36 1028 10 16 0.00 0.00
2:15 pm 14:15 Cloudy 33 0.3 4 -15.3 30 30 WNW 12 19 30.33 1027 10 16 0.00 0.00
2:35 pm 14:35 Cloudy 34 1 6 -14.6 30 30 WNW 15 24 30.33 1027 10 16 0.00 0.00
2:55 pm 14:55 Cloudy 33 0.5 5 -14.9 31 31 W 15 24 30.33 1027 10 16 0.00 0.00
3:15 pm 15:15 Cloudy 32 0 7 -14 34 34 W 14 22 30.33 1027 10 16 0.00 0.00
3:35 pm 15:35 Cloudy 33 0.3 6 -14.7 32 32 WNW 14 22 30.33 1027 10 16 0.00 0.00
3:55 pm 15:55 Cloudy 34 1.2 8 -13.4 33 33 W 15 24 30.33 1027 10 16 0.00 0.00
4:15 pm 16:15 Cloudy 34 1.2 7 -13.7 32 32 NW 15 24 30.33 1027 10 16 0.00 0.00
4:35 pm 16:35 Cloudy 34 1.2 8 -13.5 33 33 W 14 22 30.33 1027 10 16 0.00 0.00
4:55 pm 16:55 Cloudy 34 1.2 8 -13.2 34 34 W 13 20 30.33 1027 10 16 0.00 0.00
5:15 pm 17:15 Cloudy 34 1.2 9 -13 34 34 W 12 19 30.33 1027 10 16 0.00 0.00
5:35 pm 17:35 Cloudy 32 0 8 -13.6 35 35 W 10 17 30.33 1027 10 16 0.00 0.00
5:55 pm 17:55 Cloudy 34 1.2 10 -12.2 36 36 W 10 17 30.33 1027 10 16 0.00 0.00
6:15 pm 18:15 Cloudy 34 1.2 11 -11.9 37 37 W 13 20 30.33 1027 10 16 0.00 0.00
6:35 pm 18:35 Cloudy 34 1.2 6 -14.2 31 31 W 12 19 30.33 1027 10 16 0.00 0.00
6:55 pm 18:55 Cloudy 34 1.2 6 -14.4 30 30 W 8 13 30.33 1027 10 16 0.00 0.00
7:15 pm 19:15 Cloudy 32 0 6 -14.7 32 32 WNW 7 11 30.33 1027 10 16 0.00 0.00
7:35 pm 19:35 Cloudy 32 0 7 -13.8 35 35 NW 9 15 30.33 1027 10 16 0.00 0.00
7:55 pm 19:55 Cloudy 32 0 7 -13.8 35 35 W 13 20 30.36 1028 10 16 0.00 0.00
8:15 pm 20:15 Cloudy 31 -0.4 7 -13.8 36 36 WNW 9 15 30.36 1028 10 16 0.00 0.00
8:35 pm 20:35 Partly Cloudy 29 -1.5 6 -14.6 36 36 WNW 9 15 30.36 1028 10 16 0.00 0.00
8:55 pm 20:55 Clear 29 -1.5 7 -14.1 38 38 WNW 8 13 30.36 1028 10 16 0.00 0.00
9:15 pm 21:15 Clear 29 -1.5 8 -13.6 40 40 WNW 7 11 30.36 1028 10 16 0.00 0.00
9:35 pm 21:35 Clear 29 -1.5 9 -13 42 42 WNW 7 11 30.36 1028 10 16 0.00 0.00
9:55 pm 21:55 Mostly Cloudy 29 -1.5 9 -12.6 43 43 W 3 6 30.36 1028 10 16 0.00 0.00
10:15 pm 22:15 Mostly Cloudy 29 -1.5 10 -12.1 45 45 W 6 9 30.36 1028 10 16 0.00 0.00
10:35 pm 22:35 Mostly Cloudy 29 -1.5 11 -11.8 46 46 WNW 5 7 30.36 1028 10 16 0.00 0.00
10:55 pm 22:55 Partly Cloudy 29 -1.5 10 -12.3 44 44 WNW 6 9 30.39 1029 10 16 0.00 0.00
11:15 pm 23:15 Clear 29 -1.5 10 -12.2 44 44 WNW 6 9 30.39 1029 10 16 0.00 0.00
11:35 pm 23:35 Clear 29 -1.9 10 -12.5 45 45 WNW 5 7 30.39 1029 10 16 0.00 0.00
11:55 pm 23:55 Clear 27 -2.8 9 -13 46 46 W 3 6 30.39 1029 10 16 0.00 0.00

Powered by AerisWeather